[[{"header":{"parameterUnit":"m.s-1","parameterCategory":1,"la1":30.2991,"la2":30.254,"lo1":-89.0895,"lo2":-89.0444,"dy":0.0017,"dx":0.0017,"nx":28,"ny":28,"refTime":"2023-10-07T09:00:00:Z","depth":0,"parameterNumber":2,"parameterNumberName":"U-component_of_WINDS"},"data":[0,0,0,0,0,0,0,0,0,0,0,0,0,0,0,0,0,0,0,0,0,0,0,0,0,0,0,0,0,0,0,0,0,0,0,0,0,0,0,0,0,0,0,0,0,0,0,0,0,0,0,0,0,0,0,0,0,0,-1.1511,-1.1512,0,-1.158,-1.1581,-1.1581,-1.1541,-1.1539,-1.1537,-1.1535,-1.1607,-1.1611,-1.1614,0,0,0,0,0,0,0,0,0,0,0,0,0,-1.1347,-1.135,-1.1511,-1.1512,-1.1513,-1.158,-1.1581,-1.1582,-1.1541,-1.1539,-1.1537,-1.1535,-1.1606,-1.161,-1.1615,0,0,0,0,0,0,0,0,0,0,0,0,0,-1.1417,-1.1351,-1.1511,-1.1501,-1.1501,-1.1579,-1.1581,-1.1582,-1.1542,-1.1539,-1.1536,-1.1533,-1.1605,-1.161,-1.1615,-1.1708,0,0,-1.1633,-1.1635,0,0,0,0,0,0,0,0,-1.1413,-1.1423,-1.1502,-1.1502,-1.1502,-1.1549,-1.1549,-1.1624,-1.1543,-1.1526,-1.1535,-1.1532,-1.159,-1.1597,-1.1616,-1.1712,-1.1715,-1.1633,-1.1636,-1.1639,-1.164,0,0,0,0,0,0,0,-1.1408,-1.142,-1.1538,-1.1503,-1.1503,-1.1493,-1.15,-1.1563,-1.1574,-1.1528,-1.1525,-1.1533,-1.159,-1.1611,-1.1618,-1.1716,-1.1633,-1.1638,-1.1641,-1.1643,-1.1891,-1.1894,0,0,0,0,0,0,-1.1404,-1.1416,-1.1536,-1.154,-1.1449,-1.1499,-1.1506,-1.1537,-1.1573,-1.1576,-1.1536,-1.1531,-1.1603,-1.1611,-1.162,-1.1732,-1.1639,-1.1644,-1.1647,-1.1888,-1.1891,-1.1895,0,0,0,0,0,0,-1.1401,-1.1415,-1.1534,-1.1478,-1.1492,-1.1505,-1.1539,-1.154,-1.1561,-1.1579,-1.1581,-1.1555,-1.1601,-1.1612,-1.1686,-1.1733,-1.1647,-1.1652,-1.1884,-1.1889,-1.1893,-1.1955,0,0,0,0,0,0,-1.1396,-1.1414,-1.145,-1.1479,-1.1495,-1.1599,-1.1542,-1.1543,-1.157,-1.1565,-1.1598,-1.1601,-1.1599,-1.1678,-1.1692,-1.174,-1.1656,-1.188,-1.1886,-1.1892,-1.1949,-1.1962,-1.1973,0,0,0,0,0,-1.139,-1.1465,-1.1452,-1.1466,-1.154,-1.1602,-1.1611,-1.1608,-1.1574,-1.161,-1.1622,-1.16,-1.1725,-1.1686,-1.1701,-1.1751,-1.1877,-1.1884,-1.1891,-1.1944,-1.1959,-1.1972,0,0,0,0,0,0,-1.1442,-1.1469,-1.1454,-1.154,-1.1569,-1.1595,-1.1641,-1.1624,-1.1663,-1.1657,-1.165,-1.1658,-1.1736,-1.1751,-1.1707,-1.1843,-1.1796,-1.1807,-1.1831,-1.1846,-1.1857,-1.1853,-1.1661,0,0,0,0,0,-1.1463,-1.1511,-1.1532,-1.1606,-1.1621,-1.1628,-1.1655,-1.1649,-1.1679,-1.1692,-1.1709,-1.1739,-1.1785,-1.1816,-1.1859,-1.195,-1.1957,-1.1992,-1.2003,-1.2013,-1.2023,-1.2072,-1.2088,-1.1919,-1.1919,-1.1918,0,0,-1.1509,-1.1529,-1.156,-1.1617,-1.1639,-1.1689,-1.1639,-1.1694,-1.1732,-1.17,-1.1772,-1.1785,-1.1818,-1.1901,-1.1939,-1.1916,-1.2071,-1.2022,-1.2029,-1.2034,-1.2081,-1.2097,-1.2112,-1.1924,-1.1923,-1.1922,0,0,-1.1616,-1.1636,-1.17,-1.1722,-1.1755,-1.1759,-1.1774,-1.1803,-1.181,-1.1881,-1.1859,-1.1902,-1.1982,-1.2007,-1.203,-1.2144,-1.2126,-1.2159,-1.222,-1.2268,-1.2282,-1.2294,-1.2336,-1.2351,-1.2168,-1.2168,-1.2168,0,-1.1669,-1.1743,-1.1735,-1.1792,-1.1818,-1.179,-1.1855,-1.1877,-1.1923,-1.1942,-1.1915,-1.2014,-1.2034,-1.2122,-1.215,-1.2169,-1.2187,-1.2156,-1.228,-1.2292,-1.2303,-1.2343,-1.2359,-1.2172,-1.2171,-1.2171,-1.2171,0,-1.1806,-1.1858,-1.1906,-1.195,-1.1981,-1.2041,-1.2043,-1.2075,-1.2066,-1.2072,-1.2145,-1.2168,-1.2216,-1.2235,-1.2228,-1.2323,-1.2308,-1.2281,-1.2234,-1.2323,-1.2361,-1.2376,-1.2177,-1.2176,-1.2175,-1.2174,0,0,-1.1952,-1.1989,-1.2007,-1.2026,-1.2059,-1.21,-1.2158,-1.2204,-1.2232,-1.2264,-1.2314,-1.238,-1.2355,-1.2381,-1.2375,-1.2417,-1.2507,-1.2385,-1.2385,-1.2408,-1.2615,-1.2636,-1.2654,-1.2494,-1.2497,-1.2499,-1.2612,0,-1.2063,-1.2166,-1.216,-1.2257,-1.2305,-1.2277,-1.2329,-1.2355,-1.2362,-1.2404,-1.2411,-1.2459,-1.2422,-1.2437,-1.2477,-1.2488,-1.2549,-1.2479,-1.2541,-1.2544,-1.2536,-1.2674,-1.2697,-1.2803,-1.2627,-1.2629,-1.2631,0,-1.2207,-1.2243,-1.2345,-1.237,-1.239,-1.2436,-1.2477,-1.2517,-1.2545,-1.2547,-1.2575,-1.2562,-1.2621,-1.2571,-1.2653,-1.2606,-1.263,-1.2639,-1.2643,-1.2651,-1.2595,-1.2687,-1.2837,-1.2853,-1.2654,-1.2652,-1.2651,0,-1.2305,-1.2378,-1.2449,-1.2466,-1.2497,-1.253,-1.2544,-1.257,-1.2597,-1.2633,-1.265,-1.2692,-1.2716,-1.2749,-1.2747,-1.271,-1.2831,-1.278,-1.2835,-1.2835,-1.2864,-1.2862,-1.3022,-1.2876,-1.2876,-1.2876,-1.2875,0,-1.2431,-1.2495,-1.2493,-1.2537,-1.2607,-1.2598,-1.2668,-1.2679,-1.2701,-1.2746,-1.2724,-1.2767,-1.2761,-1.2804,-1.2803,-1.2872,-1.2882,-1.2886,-1.2885,-1.2889,-1.2889,-1.2907,-1.29,-1.288,-1.2879,-1.2878,-1.2877,0,-1.2554,-1.2555,-1.263,-1.2652,-1.2659,-1.271,-1.2729,-1.277,-1.2774,-1.2832,-1.2844,-1.2852,-1.2901,-1.2901,-1.2958,-1.2957,-1.3041,-1.3031,-1.3032,-1.3031,-1.3086,-1.3082,-1.3265,-1.3288,-1.3125,-1.3127,-1.3128,0,-1.2636,-1.2684,-1.2711,-1.2739,-1.2755,-1.2801,-1.2829,-1.2821,-1.2851,-1.2886,-1.2923,-1.297,-1.3007,-1.3087,-1.3098,-1.314,-1.3132,-1.3193,-1.3139,-1.3141,-1.3135,-1.3133,-1.3138,-1.3205,-1.3207,-1.3208,-1.3209,0,-1.2781,-1.2779,-1.2819,-1.286,-1.2893,-1.2925,-1.2954,-1.2978,-1.2974,-1.3008,-1.3058,-1.3087,-1.3144,-1.3191,-1.3232,-1.3247,-1.3228,-1.3226,-1.3241,-1.3247,-1.3246,-1.3249,-1.3063,-1.3223,-1.3221,-1.322,-1.322,-1.3219,-1.2887,-1.2928,-1.2953,-1.2999,-1.302,-1.3047,-1.3087,-1.3095,-1.3136,-1.3182,-1.3175,-1.323,-1.3256,-1.3309,-1.3327,-1.3371,-1.3349,-1.3371,-1.3377,-1.3383,-1.339,-1.3237,-1.3378,-1.3377,-1.3377,-1.3377,-1.3376,0,-1.3032,-1.3047,-1.3088,-1.313,-1.3165,-1.3142,-1.3173,-1.3205,-1.3254,-1.3279,-1.3316,-1.3373,-1.3418,-1.3431,-1.3474,-1.3506,-1.3499,-1.3518,-1.3517,-1.3521,-1.3406,-1.3389,-1.3523,-1.3523,-1.3523,-1.3523,-1.3523,-1.3523,-1.3113,-1.3182,-1.3182,-1.3261,-1.3275,-1.3329,-1.3348,-1.3373,-1.3393,-1.3458,-1.3495,-1.3502,-1.3523,-1.3567,-1.3607,-1.361,-1.3627,-1.3651,-1.365,-1.3543,-1.3529,-1.3515,-1.3499,-1.3654,-1.3654,-1.3761,-1.3762,-1.3763]},{"header":{"parameterUnit":"m.s-1","parameterCategory":1,"la1":30.2991,"la2":30.254,"lo1":-89.0895,"lo2":-89.0444,"dy":0.0017,"dx":0.0017,"nx":28,"ny":28,"refTime":"2023-10-07T09:00:00:Z","depth":0,"parameterNumber":3,"parameterNumberName":"V-component_of_WINDS"},"data":[0,0,0,0,0,0,0,0,0,0,0,0,0,0,0,0,0,0,0,0,0,0,0,0,0,0,0,0,0,0,0,0,0,0,0,0,0,0,0,0,0,0,0,0,0,0,0,0,0,0,0,0,0,0,0,0,0,0,-6.7338,-6.7339,0,-6.7441,-6.7442,-6.7443,-6.735,-6.7346,-6.7342,-6.7338,-6.7439,-6.7445,-6.7451,0,0,0,0,0,0,0,0,0,0,0,0,0,-6.7054,-6.706,-6.7338,-6.7339,-6.734,-6.7441,-6.7442,-6.7443,-6.735,-6.7346,-6.7341,-6.7337,-6.7437,-6.7444,-6.7451,0,0,0,0,0,0,0,0,0,0,0,0,0,-6.7169,-6.7062,-6.7337,-6.7306,-6.7304,-6.744,-6.7442,-6.7444,-6.7351,-6.7346,-6.734,-6.7335,-6.7434,-6.7443,-6.7452,-6.7623,0,0,-6.7481,-6.7485,0,0,0,0,0,0,0,0,-6.7163,-6.718,-6.7309,-6.7308,-6.7307,-6.7377,-6.7379,-6.7504,-6.7353,-6.7333,-6.7338,-6.7332,-6.7422,-6.7432,-6.7464,-6.7628,-6.7632,-6.7482,-6.7487,-6.7491,-6.7494,0,0,0,0,0,0,0,-6.7155,-6.7175,-6.7378,-6.7311,-6.731,-6.7285,-6.7295,-6.7402,-6.7408,-6.7334,-6.7328,-6.7342,-6.742,-6.7455,-6.7465,-6.7634,-6.7481,-6.749,-6.7495,-6.7499,-6.7941,-6.7947,0,0,0,0,0,0,-6.7151,-6.7169,-6.7375,-6.7381,-6.7219,-6.7294,-6.7306,-6.736,-6.7407,-6.7409,-6.7346,-6.7337,-6.7442,-6.7455,-6.7469,-6.7671,-6.7491,-6.75,-6.7505,-6.7935,-6.7943,-6.795,0,0,0,0,0,0,-6.7145,-6.717,-6.7371,-6.7273,-6.7297,-6.7305,-6.7367,-6.7365,-6.7399,-6.7416,-6.7416,-6.7381,-6.7438,-6.7455,-6.7586,-6.7673,-6.7504,-6.7512,-6.7928,-6.7938,-6.7946,-6.8078,0,0,0,0,0,0,-6.7138,-6.7169,-6.7235,-6.7276,-6.7303,-6.7488,-6.7372,-6.7371,-6.7416,-6.7405,-6.7448,-6.745,-6.7435,-6.7572,-6.7595,-6.7683,-6.752,-6.792,-6.7932,-6.7943,-6.8066,-6.8091,-6.8112,0,0,0,0,0,-6.7128,-6.7267,-6.7239,-6.7265,-6.7386,-6.7494,-6.7509,-6.749,-6.7424,-6.749,-6.75,-6.7449,-6.766,-6.7586,-6.7611,-6.7703,-6.7915,-6.7929,-6.7942,-6.8056,-6.8086,-6.8111,0,0,0,0,0,0,-6.7235,-6.7272,-6.7241,-6.7399,-6.7444,-6.7478,-6.756,-6.7523,-6.7586,-6.7573,-6.7545,-6.7556,-6.7693,-6.7711,-6.7628,-6.787,-6.7776,-6.7796,-6.7854,-6.7883,-6.7905,-6.7898,-6.7527,0,0,0,0,0,-6.7278,-6.7364,-6.739,-6.7527,-6.7551,-6.7552,-6.7598,-6.758,-6.7625,-6.7643,-6.7663,-6.7707,-6.7783,-6.7834,-6.7905,-6.8068,-6.8075,-6.8143,-6.8166,-6.8185,-6.8202,-6.8289,-6.8319,-6.7995,-6.7995,-6.7995,0,0,-6.7366,-6.7396,-6.7452,-6.7549,-6.7582,-6.767,-6.7569,-6.7666,-6.7731,-6.7657,-6.7782,-6.7798,-6.7845,-6.7992,-6.8058,-6.8011,-6.8293,-6.8203,-6.8218,-6.8225,-6.8306,-6.8337,-6.8364,-6.8005,-6.8003,-6.8001,0,0,-6.7571,-6.7603,-6.772,-6.7756,-6.7807,-6.7807,-6.7835,-6.7875,-6.7883,-6.8008,-6.7955,-6.8029,-6.8162,-6.8197,-6.8233,-6.8451,-6.8406,-6.8475,-6.8595,-6.868,-6.8705,-6.8727,-6.8805,-6.8833,-6.8492,-6.8492,-6.8492,0,-6.7673,-6.7806,-6.7784,-6.7886,-6.793,-6.7869,-6.7986,-6.802,-6.8092,-6.8123,-6.807,-6.8234,-6.8261,-6.8416,-6.8469,-6.85,-6.853,-6.847,-6.8703,-6.8726,-6.8746,-6.882,-6.8849,-6.85,-6.8499,-6.8498,-6.8497,0,-6.7928,-6.8021,-6.8108,-6.8181,-6.8234,-6.8343,-6.8337,-6.8393,-6.8369,-6.8374,-6.8501,-6.8532,-6.8608,-6.8643,-6.8621,-6.8794,-6.8764,-6.8708,-6.8613,-6.8786,-6.8854,-6.8882,-6.8511,-6.8509,-6.8506,-6.8504,0,0,-6.8205,-6.8264,-6.8297,-6.8329,-6.8381,-6.8451,-6.8556,-6.8632,-6.8681,-6.8732,-6.8818,-6.8931,-6.888,-6.892,-6.8901,-6.8975,-6.9145,-6.891,-6.891,-6.8952,-6.9337,-6.9379,-6.9412,-6.9116,-6.9121,-6.9125,-6.9333,0,-6.8411,-6.8597,-6.858,-6.8755,-6.8839,-6.8782,-6.8873,-6.8914,-6.8921,-6.8992,-6.8998,-6.9079,-6.9005,-6.9029,-6.91,-6.911,-6.9222,-6.9094,-6.9194,-6.9198,-6.9185,-6.9448,-6.9493,-6.9688,-6.936,-6.9364,-6.9368,0,-6.8678,-6.874,-6.8924,-6.8963,-6.8998,-6.9081,-6.9148,-6.9218,-6.9262,-6.9261,-6.9307,-6.9275,-6.9378,-6.9281,-6.9423,-6.9336,-6.9376,-6.9386,-6.9393,-6.9402,-6.9294,-6.9463,-6.975,-6.9779,-6.941,-6.9406,-6.9403,0,-6.8861,-6.899,-6.9117,-6.9146,-6.9195,-6.9254,-6.9277,-6.9316,-6.9362,-6.9421,-6.945,-6.952,-6.9558,-6.9611,-6.9598,-6.9528,-6.9742,-6.9644,-6.9743,-6.9744,-6.9791,-6.9788,-7.0088,-6.9817,-6.9817,-6.9816,-6.9815,0,-6.9093,-6.9208,-6.92,-6.9278,-6.9403,-6.9382,-6.9507,-6.9522,-6.9557,-6.9635,-6.9589,-6.9663,-6.9641,-6.9713,-6.9703,-6.9822,-6.9839,-6.984,-6.9836,-6.9845,-6.9845,-6.987,-6.9856,-6.9824,-6.9822,-6.9821,-6.9819,0,-6.9319,-6.9318,-6.9453,-6.9488,-6.95,-6.9591,-6.962,-6.9692,-6.9695,-6.9795,-6.9817,-6.9821,-6.9904,-6.9896,-6.9988,-6.9981,-7.0128,-7.0108,-7.0114,-7.0109,-7.0209,-7.02,-7.0536,-7.0578,-7.028,-7.0283,-7.0285,0,-6.9468,-6.9555,-6.96,-6.965,-6.9678,-6.9759,-6.9806,-6.9788,-6.9839,-6.9896,-6.9961,-7.004,-7.0102,-7.0237,-7.0247,-7.0317,-7.0298,-7.041,-7.0308,-7.0313,-7.0299,-7.0294,-7.0302,-7.0431,-7.0434,-7.0437,-7.0439,0,-6.9732,-6.9727,-6.9799,-6.9871,-6.9929,-6.9984,-7.0034,-7.0077,-7.0063,-7.0122,-7.0208,-7.0256,-7.0351,-7.0429,-7.0496,-7.0516,-7.0476,-7.0471,-7.0498,-7.0507,-7.0507,-7.0508,-7.0169,-7.0464,-7.0461,-7.0459,-7.0458,-7.0457,-6.9923,-6.9998,-7.0042,-7.0122,-7.0158,-7.0206,-7.0276,-7.0288,-7.0359,-7.0436,-7.042,-7.0516,-7.0556,-7.0642,-7.0669,-7.0742,-7.0701,-7.074,-7.0749,-7.0759,-7.0771,-7.0496,-7.0754,-7.0753,-7.0753,-7.0752,-7.0751,0,-7.0185,-7.021,-7.0285,-7.0357,-7.042,-7.0378,-7.043,-7.0485,-7.0571,-7.0613,-7.0676,-7.0773,-7.0848,-7.0864,-7.0936,-7.0991,-7.0974,-7.1011,-7.1006,-7.1012,-7.0804,-7.0774,-7.1023,-7.1023,-7.1023,-7.1023,-7.1023,-7.1023,-7.0328,-7.0452,-7.0452,-7.0592,-7.0616,-7.0711,-7.0745,-7.0788,-7.0821,-7.0933,-7.0996,-7.1006,-7.1038,-7.1111,-7.1178,-7.1181,-7.1209,-7.1253,-7.1248,-7.1054,-7.1026,-7.1001,-7.0972,-7.1259,-7.126,-7.145,-7.1452,-7.1453]}]]